Location: Street
(51.1247°N, 2.7429°W)
Time: 23:59:05
(UTC+00:00)

Vanguard 2 Rocket - All Passes

Search period start: 05 December 2020 00:00
Search period end: 15 December 2020 00:00
Orbit: 553 x 3326 km, 32.9° (Epoch: 05 December)

Date Brightness Start Highest point End Pass type
(mag) Time Alt. Az. Time Alt. Az. Time Alt. Az.
05 Dec - 04:47:09 10° S 05:00:01 25° SE 05:14:19 10° E visible
05 Dec - 06:57:55 10° SW 07:14:49 40° SSE 07:31:30 10° ESE visible
05 Dec - 09:12:40 10° WSW 09:30:34 42° S 09:45:30 10° SE daylight
05 Dec - 11:30:25 10° W 11:45:00 28° SW 11:56:19 10° SSE daylight
06 Dec - 03:49:33 10° S 03:59:35 19° SE 04:11:00 10° E visible
06 Dec - 05:58:01 10° SW 06:13:31 36° SSE 06:30:16 10° ESE visible
06 Dec - 08:11:25 10° WSW 08:29:11 43° S 08:45:27 10° ESE daylight
06 Dec - 10:27:53 10° W 10:44:26 34° SSW 10:57:42 10° SSE daylight
06 Dec - 12:48:54 10° WSW 12:57:26 15° SW 13:04:40 10° SSW daylight
07 Dec - 02:54:36 10° SE 02:59:36 12° SE 03:05:01 10° ESE visible
07 Dec - 04:58:47 10° SSW 05:12:31 31° SSE 05:28:25 10° E visible
07 Dec - 07:10:43 10° SW 07:27:42 43° S 07:44:53 10° ESE visible
07 Dec - 09:25:58 10° WSW 09:43:26 39° SSW 09:58:26 10° SE daylight
07 Dec - 11:44:33 10° W 11:57:28 22° SW 12:08:02 10° S daylight
08 Dec - 04:00:22 10° S 04:11:55 24° SE 04:25:47 10° E visible
08 Dec - 06:10:35 10° SW 06:26:18 40° SSE 06:43:46 10° ESE visible
08 Dec - 08:24:36 10° WSW 08:42:07 42° S 08:58:31 10° SE daylight
08 Dec - 10:41:36 10° W 10:57:03 29° SSW 11:09:56 10° SSE daylight
09 Dec - 03:03:09 10° SSE 03:11:46 17° SE 03:22:01 10° E visible
09 Dec - 05:11:04 10° SW 05:25:10 36° SSE 05:42:05 10° E visible
09 Dec - 07:23:48 10° WSW 07:40:38 43° S 07:58:04 10° ESE visible
09 Dec - 09:39:28 10° W 09:56:11 35° SSW 10:10:58 10° SSE daylight
09 Dec - 11:59:37 10° WSW 12:09:44 17° SW 12:18:34 10° SSW daylight
10 Dec - 02:10:04 10° SE 02:12:03 10° SE 02:14:09 10° ESE visible
10 Dec - 04:12:11 10° SSW 04:24:24 30° SSE 04:39:48 10° E visible
10 Dec - 06:23:31 10° SW 06:39:11 42° S 06:57:03 10° ESE visible
10 Dec - 08:37:59 10° WSW 08:54:58 39° SSW 09:11:19 10° SE daylight
10 Dec - 10:55:47 10° W 11:09:29 24° SW 11:21:28 10° S daylight
11 Dec - 03:14:07 10° S 03:24:06 23° SE 03:36:48 10° E visible
11 Dec - 05:23:47 10° SW 05:37:57 39° SSE 05:55:29 10° ESE visible
11 Dec - 07:37:05 10° WSW 07:53:34 42° S 08:11:00 10° SE daylight
11 Dec - 09:53:16 10° W 10:08:48 30° SSW 10:23:01 10° SSE daylight
11 Dec - 12:17:42 10° WSW 12:21:53 11° SW 12:25:53 10° SW daylight
12 Dec - 02:17:23 10° SSE 02:24:15 16° SE 02:32:34 10° ESE visible
12 Dec - 04:24:37 10° SSW 04:37:03 34° SSE 04:53:24 10° E visible
12 Dec - 06:36:42 10° WSW 06:52:08 43° S 07:10:06 10° ESE visible
12 Dec - 08:51:36 10° WSW 09:07:45 35° SSW 09:23:41 10° SSE daylight
12 Dec - 11:10:53 10° WSW 11:21:47 18° SW 11:31:49 10° S daylight
13 Dec - 03:26:05 10° SSW 03:36:36 28° SSE 03:50:47 10° E visible
13 Dec - 05:36:50 10° SW 05:50:50 41° S 06:08:40 10° ESE visible
13 Dec - 07:50:34 10° WSW 08:06:27 39° SSW 08:23:38 10° SE daylight
13 Dec - 10:07:33 10° W 10:21:17 24° SW 10:34:19 10° S daylight
14 Dec - 02:28:21 10° S 02:36:38 21° SE 02:47:29 10° E visible
14 Dec - 04:37:28 10° SW 04:49:52 37° SSE 05:06:43 10° ESE visible
14 Dec - 06:50:06 10° WSW 07:05:06 41° S 07:22:55 10° SE visible
14 Dec - 09:05:30 10° W 09:20:25 30° SSW 09:35:31 10° SSE daylight
14 Dec - 11:28:40 10° WSW 11:34:00 12° SW 11:39:10 10° SW daylight
